Regional Weather Roundup
Issued by NWS Sioux Falls, SD

Home | Current Version | Previous Version | Graphics & Text | Print | Product List | Glossary Off
Versions: 1 2 3 4 5 6 7 8 9 10 11 12 13 14 15 16 17 18 19 20 21 22 23 24 25 26 27 28 29 30 31 32 33 34 35 36 37 38 39 40 41 42 43 44 45 46 47 48 49 50

000
ASUS43 KFSD 060402
RWRFSD

WEATHER ROUNDUP FOR SE SOUTH DAKOTA/SW MINNESOTA/NW IOWA
NATIONAL WEATHER SERVICE SIOUX FALLS SD
1000 PM CST THU MAR 05 2015

NOTE: "FAIR" INDICATES FEW OR NO CLOUDS BELOW 12,000 FEET WITH NO
SIGNIFICANT WEATHER AND OR OBSTRUCTIONS TO VISIBILITY.


SDZ038>040-050-052>070-060500-
SOUTHEAST SOUTH DAKOTA

CITY           SKY/WX    TMP DP  RH WIND       PRES   REMARKS
CHAMBERLAIN    NOT AVBL
HURON          CLEAR     22   7  52 S9        30.13F WCI  12
MADISON        FAIR      16   7  67 S10       30.16S WCI   3
MITCHELL       CLEAR     26   7  44 S12       30.16F WCI  16
SIOUX FALLS    CLEAR     22   7  52 S15       30.20F WCI   9
WINNER         FAIR      34  19  54 W13       30.14R WCI  25
YANKTON        CLEAR     27   7  43 SE7       30.22F WCI  19
$$

MNZ071-072-080-081-089-090-097-098-060500-
SOUTHWEST MINNESOTA

CITY           SKY/WX    TMP DP  RH WIND       PRES   REMARKS
FAIRMONT       CLEAR     12   3  67 S15       30.29F WCI  -4
JACKSON        CLEAR     18   5  57 S15       30.27F WCI   3
LUVERNE        CLEAR     19   9  63 S7        30.23F WCI  10
MARSHALL       CLEAR     18   7  62 S16       30.20F WCI   3
MONTEVIDEO     CLEAR     16   7  67 S12       30.21F WCI   3
PIPESTONE      CLEAR     18   9  68 S17       30.18F WCI   2
REDWOOD FALLS  CLEAR     13   5  70 S14       30.25F WCI  -2
TRACY          CLEAR     18   8  65 S20G29    30.20F WCI   1
WINDOM         CLEAR     16   7  67 S15G22    30.24F WCI   1
WORTHINGTON    CLEAR     16   5  62 S20       30.24F WCI  -1
$$

IAZ001>003-012>014-020>022-031-032-NEZ013-014-SDZ071-060500-
NORTHWEST IOWA

CITY           SKY/WX    TMP DP  RH WIND       PRES   REMARKS
ESTHERVILLE    CLEAR     13   5  70 S15       30.29F WCI  -3
SIOUX CITY     MOCLDY    23   7  50 SE13      30.29F WCI  11
SPENCER        CLEAR     16   6  65 S15       30.29F WCI   1
$$

ABBREVIATIONS USED IN REMARKS
   TC - TEMPERATURE IN CELSIUS
  WCI - WIND CHILL INDEX
   HX - HEAT INDEX
  VSB - VISIBILITY



USA.gov is the U.S. government's official web portal to all federal, state and local government web resources and services.